EW0636 Weather Reports


Display with metric or nautical units.
time (UTC)temp
F
wind
direction
speed
MPH
gust
MPH
rain 1hr
in
rain 24hr
in
rain mn
in
humidity
%
barometer
mb
20260906114538 72 105 0.0 0.0 0.00 0.00 0.00 38 1011.3
20260906113040 72 105 0.0 0.0 0.00 0.00 0.00 41 1011.0
20260906111535 72 105 0.0 0.0 0.00 0.00 0.00 47 1010.6
20260906110030 72 105 0.0 0.0 0.00 0.00 0.00 51 1010.5
20260906104532 72 106 0.0 0.0 0.00 0.00 0.00 50 1010.3
20260906103028 72 106 0.0 0.0 0.00 0.00 0.00 52 1010.3
20260906101528 72 106 0.0 0.0 0.00 0.00 0.00 49 1010.1
20260906100027 73 106 0.0 0.0 0.00 0.00 0.00 58 1010.0
20260906094524 73 106 0.0 0.0 0.00 0.00 0.00 57 1010.0
20260906093023 73 106 0.0 0.0 0.00 0.00 0.00 60 1009.9
20260906091520 73 106 0.0 0.0 0.00 0.00 0.00 66 1009.8
20260906090018 73 106 0.0 0.0 0.00 0.00 0.00 69 1009.9
20260906084517 73 106 0.0 0.0 0.00 0.00 0.00 72 1009.8
20260906083015 74 106 0.0 0.0 0.00 0.00 0.00 74 1009.6
20260906081513 74 106 0.0 0.0 0.00 0.00 0.00 76 1009.6
20260906080023 74 106 0.0 0.0 0.00 0.00 0.00 77 1009.6
20260906074510 74 106 0.0 0.0 0.00 0.00 0.00 78 1009.8
20260906073008 75 106 0.0 0.0 0.00 0.00 0.00 79 1009.9
20260906071508 75 106 0.0 0.0 0.00 0.00 0.00 79 1009.8
20260906070006 75 106 0.0 0.0 0.00 0.00 0.00 79 1010.0
20260906064507 75 106 0.0 0.0 0.00 0.00 0.00 79 1009.9
20260906063005 75 106 0.0 0.0 0.00 0.00 0.00 79 1009.8
20260906061502 76 105 0.0 0.0 0.00 0.00 0.00 78 1010.1
20260906060001 76 106 0.0 0.0 0.00 0.00 0.00 79 1010.2
20260906054601 76 106 0.0 0.0 0.00 0.00 0.00 78 1010.1
20260906053107 77 107 0.0 3.0 0.00 0.00 0.00 78 1010.1
20260906051600 77 106 0.0 0.0 0.00 0.00 0.00 76 1010.2
20260906050054 79 106 2.0 7.0 0.00 0.00 0.00 74 1010.4
20260906044547 80 98 2.0 6.0 0.00 0.00 0.00 74 1010.4
20260906043046 81 90 0.0 4.0 0.00 0.00 0.00 74 1010.5
20260906041538 82 82 0.0 4.0 0.00 0.00 0.00 72 1010.2
20260906040036 82 84 1.0 6.0 0.00 0.00 0.00 72 1010.4
20260906034529 81 88 1.0 6.0 0.00 0.00 0.00 74 1010.5
20260906033028 82 310 0.0 0.0 0.00 0.00 0.00 73 1010.1
20260906031523 81 310 0.0 0.0 0.00 0.00 0.00 75 1010.0
20260906030022 81 310 0.0 0.0 0.00 0.00 0.00 75 1009.9
20260906024513 82 310 0.0 0.0 0.00 0.00 0.00 75 1009.6
20260906023009 84 310 0.0 0.0 0.00 0.00 0.00 71 1009.3
20260906021505 84 310 0.0 0.0 0.00 0.00 0.00 70 1009.2
20260906020108 86 310 0.0 0.0 0.00 0.00 0.00 69 1008.9
20260906014601 86 310 0.0 0.0 0.00 0.00 0.00 67 1008.8
20260906013103 87 310 0.0 0.0 0.00 0.00 0.00 66 1008.7
20260906011600 88 310 0.0 0.0 0.00 0.00 0.00 64 1008.7
20260906010044 88 310 0.0 0.0 0.00 0.00 0.00 62 1008.6
20260906004540 89 310 0.0 0.0 0.00 0.00 0.00 61 1008.8
20260906003036 90 310 0.0 0.0 0.00 0.00 0.00 60 1008.8
20260906001531 91 310 0.0 0.0 0.00 0.00 0.00 59 1008.8
20260906000044 91 310 0.0 1.0 0.00 0.00 0.00 59 1008.8
20260905234521 92 310 0.0 0.0 0.00 0.00 0.00 57 1008.8
20260905233017 92 315 0.0 0.0 0.00 0.00 0.00 57 1008.7
20260905231515 93 315 0.0 0.0 0.00 0.00 0.00 56 1008.8
20260905230008 94 315 0.0 0.0 0.00 0.00 0.00 54 1008.7
20260905224504 96 315 1.0 5.0 0.00 0.00 0.00 52 1008.6
20260905223100 97 319 0.0 3.0 0.00 0.00 0.00 48 1008.6
20260905221555 96 319 1.0 5.0 0.00 0.00 0.00 50 1008.6
20260905220051 95 319 0.0 0.0 0.00 0.00 0.00 53 1008.6
20260905214546 96 319 1.0 4.0 0.00 0.00 0.00 49 1008.7
20260905213042 97 319 0.0 0.0 0.00 0.00 0.00 50 1008.7
20260905211549 96 319 0.0 2.0 0.00 0.00 0.00 49 1008.8
20260905210033 98 319 0.0 1.0 0.00 0.00 0.00 50 1008.9
20260905204535 97 319 0.0 4.0 0.00 0.00 0.00 47 1009.1
20260905203024 98 325 0.0 6.0 0.00 0.00 0.00 45 1009.3
20260905201519 98 332 0.0 8.0 0.00 0.00 0.00 46 1009.6
20260905200025 98 9 0.0 5.0 0.00 0.00 0.00 45 1009.7
20260905194513 97 5 0.0 0.0 0.00 0.00 0.00 45 1009.9
20260905193009 99 5 0.0 3.0 0.00 0.00 0.00 45 1010.0
20260905191502 98 194 0.0 4.0 0.00 0.00 0.00 45 1010.4
20260905190057 99 325 0.0 2.0 0.00 0.00 0.00 44 1010.5
20260905184611 98 325 0.0 6.0 0.00 0.00 0.00 45 1010.6
20260905183051 97 321 0.0 6.0 0.00 0.00 0.00 48 1010.8
20260905181555 98 339 1.0 8.0 0.00 0.00 0.00 47 1011.0
20260905180045 97 295 0.0 5.0 0.00 0.00 0.00 49 1011.2
20260905174536 97 345 0.0 4.0 0.00 0.00 0.00 52 1011.4
20260905173033 96 322 1.0 9.0 0.00 0.00 0.00 51 1011.5
20260905171526 95 333 3.0 8.0 0.00 0.00 0.00 51 1011.8
20260905170022 96 92 0.0 3.0 0.00 0.00 0.00 53 1011.8
20260905164518 94 329 0.0 5.0 0.00 0.00 0.00 55 1011.9
20260905163012 94 223 1.0 4.0 0.00 0.00 0.00 55 1012.1
20260905161508 95 330 0.0 0.0 0.00 0.00 0.00 56 1012.2
20260905160004 95 328 0.0 1.0 0.00 0.00 0.00 58 1012.1
20260905154616 93 328 2.0 8.0 0.00 0.00 0.00 57 1012.4
20260905153102 93 329 0.0 4.0 0.00 0.00 0.00 58 1012.5
20260905151551 93 51 0.0 3.0 0.00 0.00 0.00 64 1012.6
20260905150047 91 53 0.0 1.0 0.00 0.00 0.00 66 1012.6
20260905144543 90 59 0.0 4.0 0.00 0.00 0.00 65 1012.7
20260905143038 89 60 0.0 3.0 0.00 0.00 0.00 70 1012.7
20260905141534 87 61 0.0 0.0 0.00 0.00 0.00 69 1012.7
20260905140030 85 225 0.0 0.0 0.00 0.00 0.00 71 1012.9
20260905134525 83 225 0.0 0.0 0.00 0.00 0.00 68 1012.9
20260905133035 81 302 0.0 0.0 0.00 0.00 0.00 62 1013.0
20260905131516 80 302 0.0 0.0 0.00 0.00 0.00 53 1013.0
20260905130014 79 269 0.0 0.0 0.00 0.00 0.00 30 1013.1
20260905124507 77 269 0.0 0.0 0.00 0.00 0.00 1 1013.1
20260905123002 75 269 0.0 0.0 0.00 0.00 0.00 1 1012.9
20260905121602 74 346 0.0 0.0 0.00 0.00 0.00 1 1012.8
20260905120053 73 188 0.0 0.0 0.00 0.00 0.00 1 1012.6